EW3665 Weather Reports


time (UTC)temp
F
wind
direction
speed
knots
gust
knots
rain 1hr
in
rain 24hr
in
rain mn
in
humidity
%
barometer
mb
20260507143132 0 0.0 0.0 0.00 0.00 0.00 1012.4
20260507141507 0 0.0 0.0 0.00 0.00 0.00 1012.4
20260507140002 0 0.0 0.0 0.00 0.00 0.00 1012.6
20260507134604 84 46 2.6 8.7 0.00 0.00 0.00 74 1012.6
20260507133105 84 71 3.5 8.7 0.00 0.00 0.00 75 1012.5
20260507131600 82 146 3.5 7.8 0.00 0.00 0.00 78 1012.4
20260507130056 81 85 2.6 7.8 0.00 0.00 0.00 78 1012.5
20260507124556 82 19 3.5 8.7 0.00 0.00 0.00 77 1012.6
20260507123056 82 36 2.6 6.1 0.00 0.00 0.00 77 1012.5
20260507121544 81 19 3.5 9.6 0.00 0.00 0.00 77 1012.4
20260507120045 81 79 2.6 6.1 0.00 0.00 0.00 79 1012.2
20260507114542 80 53 1.7 5.2 0.00 0.00 0.00 80 1012.1
20260507113045 79 75 1.7 7.0 0.00 0.00 0.00 84 1012.0
20260507111536 78 63 0.0 3.5 0.00 0.00 0.00 86 1011.6
20260507110037 77 35 0.9 4.3 0.00 0.00 0.00 87 1011.5
20260507104533 76 67 0.0 2.6 0.00 0.00 0.00 88 1011.3
20260507103033 76 65 0.9 4.3 0.00 0.00 0.00 88 1011.0
20260507101520 76 110 0.9 4.3 0.00 0.00 0.00 89 1011.1
20260507100025 76 56 0.9 3.5 0.00 0.00 0.00 88 1011.0
20260507094518 76 88 0.0 3.5 0.00 0.00 0.00 88 1011.1
20260507093017 76 61 0.9 4.3 0.00 0.00 0.00 87 1011.1
20260507091521 76 81 0.0 1.7 0.00 0.00 0.00 87 1011.1
20260507090015 76 101 0.9 5.2 0.00 0.00 0.00 86 1010.9
20260507084515 77 96 0.9 6.1 0.00 0.00 0.00 86 1010.8
20260507083014 77 5 0.0 3.5 0.00 0.00 0.00 86 1010.8
20260507081503 77 51 0.9 5.2 0.00 0.00 0.00 85 1010.7
20260507080100 77 83 0.9 5.2 0.00 0.00 0.00 85 1010.8
20260507074606 77 69 1.7 6.1 0.00 0.00 0.00 85 1010.7
20260507073135 77 87 0.9 4.3 0.00 0.00 0.00 85 1010.6
20260507071557 77 84 0.9 6.1 0.00 0.00 0.00 85 1010.7
20260507070057 77 38 0.9 6.1 0.00 0.00 0.00 85 1010.8
20260507064610 78 65 2.6 7.8 0.00 0.00 0.00 84 1011.0
20260507063106 78 48 2.6 7.0 0.00 0.00 0.00 84 1011.1
20260507061543 78 110 0.9 5.2 0.00 0.00 0.00 84 1011.2
20260507060042 78 23 1.7 5.2 0.00 0.00 0.00 83 1011.4
20260507054541 78 40 1.7 4.3 0.00 0.00 0.00 83 1011.5
20260507053041 78 109 2.6 6.1 0.00 0.00 0.00 83 1011.6
20260507051540 78 32 2.6 6.1 0.00 0.00 0.00 83 1011.7
20260507050038 78 119 1.7 5.2 0.00 0.00 0.00 83 1011.8
20260507044537 78 58 1.7 7.8 0.00 0.00 0.00 83 1012.0
20260507043038 78 38 2.6 5.2 0.00 0.00 0.00 82 1012.1
20260507041523 78 79 2.6 8.7 0.00 0.00 0.00 82 1012.2
20260507040022 79 34 1.7 5.2 0.00 0.00 0.00 82 1012.2
20260507034532 79 49 2.6 7.0 0.00 0.00 0.00 81 1012.2
20260507033020 79 139 2.6 7.8 0.00 0.00 0.00 81 1012.2
20260507031519 79 67 1.7 6.1 0.00 0.00 0.00 80 1012.2
20260507030017 79 64 2.6 7.0 0.00 0.00 0.00 80 1012.2
20260507024516 80 96 2.6 9.6 0.00 0.00 0.00 79 1012.2
20260507023015 80 161 2.6 7.0 0.00 0.00 0.00 79 1012.2
20260507021604 80 123 2.6 8.7 0.00 0.00 0.00 78 1012.0
20260507020054 80 52 2.6 7.8 0.00 0.00 0.00 77 1012.0
20260507014541 81 67 3.5 7.8 0.00 0.00 0.00 76 1012.0
20260507013040 81 98 3.5 7.8 0.00 0.00 0.00 74 1011.7
20260507011539 81 57 1.7 8.7 0.00 0.00 0.00 73 1011.4
20260507010039 82 65 3.5 7.8 0.00 0.00 0.00 72 1011.3
20260507004533 82 59 2.6 7.8 0.00 0.00 0.00 74 1011.1
20260507003032 82 142 1.7 7.0 0.00 0.00 0.00 76 1010.9
20260507001533 83 56 1.7 7.8 0.00 0.00 0.00 75 1010.7
20260507000029 83 94 3.5 10.4 0.00 0.00 0.00 73 1010.5
20260506234525 84 115 2.6 9.6 0.00 0.00 0.00 72 1010.1
20260506233009 84 54 4.3 9.6 0.00 0.00 0.00 70 1010.0
20260506231506 84 360 1.7 7.8 0.00 0.00 0.00 69 1009.6
20260506230004 85 61 2.6 6.1 0.00 0.00 0.00 68 1009.4
20260506224505 85 19 3.5 9.6 0.00 0.00 0.00 67 1009.3
20260506223105 86 84 3.5 9.6 0.00 0.00 0.00 65 1009.3
20260506221558 86 32 1.7 9.6 0.00 0.00 0.00 65 1009.1
20260506220108 87 56 4.3 9.6 0.00 0.00 0.00 65 1008.8
20260506214556 87 98 4.3 13.0 0.00 0.00 0.00 65 1008.7
20260506213038 88 57 3.5 12.2 0.00 0.00 0.00 64 1008.7
20260506211545 88 71 4.3 11.3 0.00 0.00 0.00 64 1008.4
20260506210025 89 26 4.3 13.9 0.00 0.00 0.00 65 1008.4
20260506204525 89 78 6.1 17.4 0.00 0.00 0.00 64 1008.4
20260506203025 89 108 6.1 13.0 0.00 0.00 0.00 61 1008.4
20260506201521 90 19 6.1 13.9 0.00 0.00 0.00 61 1008.3
20260506200017 0 0.0 0.0 0.00 0.00 0.00 1008.3
20260506194615 0 0.0 0.0 0.00 0.00 0.00 1008.4
20260506193008 0 0.0 0.0 0.00 0.00 0.00 1008.3
20260506191504 0 0.0 0.0 0.00 0.00 0.00 1008.5
20260506190043 0 0.0 0.0 0.00 0.00 0.00 1008.6
20260506184539 0 0.0 0.0 0.00 0.00 0.00 1008.7
20260506183021 0 0.0 0.0 0.00 0.00 0.00 1008.9
20260506181517 0 0.0 0.0 0.00 0.00 0.00 1009.2
20260506180012 0 0.0 0.0 0.00 0.00 0.00 1009.3
20260506174508 0 0.0 0.0 0.00 0.00 0.00 1009.7
20260506173004 0 0.0 0.0 0.00 0.00 0.00 1009.9
20260506171606 0 0.0 0.0 0.00 0.00 0.00 1010.1
20260506170104 0 0.0 0.0 0.00 0.00 0.00 1010.4
20260506164552 0 0.0 0.0 0.00 0.00 0.00 1010.8
20260506163035 0 0.0 0.0 0.00 0.00 0.00 1011.1
20260506161532 0 0.0 0.0 0.00 0.00 0.00 1011.5
20260506160036 0 0.0 0.0 0.00 0.00 0.00 1011.7
20260506154524 0 0.0 0.0 0.00 0.03 0.00 1011.9
20260506153117 0 0.0 0.0 0.00 0.03 0.00 1012.1
20260506151515 0 0.0 0.0 0.00 0.03 0.00 1012.3
20260506150008 0 0.0 0.0 0.00 0.03 0.00 1012.6
20260506144503 0 0.0 0.0 0.00 0.03 0.00 1012.8